Location: Abrud
(46.2667°N, 23.0667°E)
Time: 22:16:47
(UTC+00:00)

Daily predictions for brighter satellites

Satellite Brightness Start Highest point End
(mag) Time Altitude Azimuth Time Altitude Azimuth Time Altitude Azimuth
NOSS 3-1 (A) 4.5 15:05:45 10° NNW 15:12:24 39° NE 15:20:09 10° ESE
NOAA 11 4.3 15:07:18 10° SSE 15:12:44 90° ENE 15:18:12 10° NNW
NOSS 3-1 (C) 4.2 15:08:46 10° NW 15:15:53 54° NE 15:24:16 10° ESE
Okean 3 Rocket 3.6 15:11:36 10° N 15:16:08 67° E 15:20:34 10° SSE
USA 234 3.4 15:10:36 10° SE 15:17:10 87° SSW 15:23:44 10° NW
MOS 1 Rocket 4.4 15:13:28 10° N 15:18:29 50° WNW 15:23:11 10° SW
NOSS 2-1 (D) 3.0 15:18:40 10° SW 15:21:56 71° NW 15:25:14 10° NE
USA 306 3.2 15:19:22 10° WSW 15:23:35 64° NNW 15:27:50 10° NE
Aureole 3 4.4 15:18:44 10° S 15:24:06 72° E 15:30:51 10° NNE
Spot 1 4.3 15:19:37 10° NNE 15:24:12 81° ESE 15:29:02 10° SSW
Cosmos 1833 Rocket 4.1 15:22:18 10° SE 15:26:02 18° E 15:29:47 10° ENE
CZ-2D R/B 4.3 15:23:06 10° ESE 15:26:14 24° ENE 15:29:23 10° NNE
SL-08 R/B 3.5 15:22:17 10° NNE 15:27:04 79° WNW 15:31:44 10° SSW
Meteor 2-2 Rocket 4.4 15:21:11 10° S 15:27:08 64° E 15:33:05 10° NNE
Cosmos 1777 Rocket 4.3 15:23:32 10° NNW 15:28:50 78° WSW 15:34:07 10° SSE
Cosmos 1842 Rocket 4.0 15:25:14 10° SSE 15:29:25 43° E 15:33:39 10° NNE
Iridium 2 3.6 15:27:28 10° N 15:31:14 86° E 15:34:59 10° S
CZ-4B R/B 4.0 15:27:36 10° ESE 15:32:10 28° ENE 15:36:41 10° N
ATLAS 5 CENTAUR R/B 4.0 15:24:37 10° WNW 15:35:07 28° N 15:38:49 11° NE
ARGOS 4.1 15:32:35 10° ESE 15:36:52 25° ENE 15:41:10 10° N
PSLV R/B 4.2 15:34:29 10° SE 15:37:52 36° ENE 15:41:17 10° N
Sich 1 4.4 15:36:09 10° NNE 15:39:05 18° ENE 15:42:01 10° ESE
Cosmos 1898 Rocket 4.3 15:34:33 10° N 15:39:09 29° ENE 15:43:42 10° ESE
H-2A R/B 2.5 15:34:24 10° SE 15:39:12 37° ENE 15:43:52 10° N
SMAP 3.0 15:34:38 10° SSE 15:39:15 68° ENE 15:43:54 10° N
Meteor PRIRODA 4.2 15:36:06 10° S 15:39:42 62° W 15:43:20 10° NNW
USA 307 3.3 15:35:50 10° WSW 15:40:03 57° NNW 15:43:50 13° NE
Cosmos 1939 Rocket 2.8 15:36:54 10° SSE 15:41:02 76° ENE 15:45:09 10° N
Cosmos 1766 Rocket 4.2 15:36:59 10° NNW 15:41:17 60° W 15:45:33 10° S
Cosmos 1862 4.0 15:38:04 10° NNW 15:42:00 58° W 15:45:55 10° S
FengYun 1-2 T 4.3 15:38:15 10° SSE 15:43:52 89° WSW 15:49:28 10° NNW
Cosmos 1606 2.6 15:40:14 10° S 15:43:58 86° E 15:47:46 10° N
ERBS 2.2 15:41:06 10° SW 15:44:18 81° NW 15:46:52 15° NE
ATLAS CENTAUR R/B 2.7 15:44:47 10° WSW 15:48:38 36° NW 15:52:48 10° NNE
Cosmos 2221 2.4 15:45:05 10° S 15:49:20 80° E 15:53:38 10° N
Cosmos 44 3.2 15:44:35 10° NNW 15:49:23 59° NE 15:53:52 10° SE
Cosmos 2026 Rocket 4.5 15:44:15 10° N 15:49:53 35° ENE 15:55:25 10° SE
Meteor 2-19 Rocket 4.4 15:48:29 10° N 15:54:36 85° E 16:00:43 10° S
COSMO-SKYMED 1 3.5 15:52:00 12° NE 15:55:22 27° E 15:59:03 10° SSE
CZ-2C R/B 3.3 15:52:43 10° NNE 15:57:23 32° E 16:01:58 10° SSE
deb Chang Zheng 4 4.1 15:55:39 10° SE 15:59:35 36° ENE 16:03:33 10° N
CZ-4C R/B 3.7 15:54:16 10° NNW 16:00:05 29° NNE 16:04:34 17° ENE
Meteor 1-25 Rocket 4.3 15:55:57 10° N 16:01:23 52° ENE 16:06:49 10° SSE
USA 308 3.6 15:58:17 10° W 16:02:22 45° NNW 16:05:10 19° NE
Okean O Rocket 2.2 15:59:18 10° SE 16:03:18 34° ENE 16:07:19 10° N
Cosmos 1500 4.4 16:02:41 10° NNE 16:10:22 - SE 16:05:00 22° NE
MOS 1-B 4.3 16:03:43 10° SSE 16:09:27 72° ENE 16:15:14 10° NNW
ISS -2.6 16:07:43 10° WNW 16:10:49 31° N 16:11:56 25° NE
YAOGAN 1 4.2 16:13:13 17° NE 16:13:13 17° NE 16:14:52 10° NNE
Cosmos 1464 Rocket 4.5 16:05:33 10° SSW 16:11:52 67° W 16:18:16 10° N
Cosmos 2322 Rocket 4.2 16:15:26 10° NNE 16:15:46 10° NNE 16:15:46 10° NNE
Cosmos 2369 4.2 16:11:25 10° NNW 16:16:43 36° NE 16:20:21 18° ESE
GEOS 3 Rocket 3.7 16:15:44 10° ESE 16:20:46 57° NE 16:25:52 10° NNW
Cosmos 2084 3.6 16:16:43 10° NNW 16:20:54 50° NE 16:23:06 26° ESE
CZ-4 R/B 3.7 16:24:22 11° NNE 16:24:22 11° NNE 16:24:37 10° NNE
Cosmos 1743 Rocket 3.5 16:20:14 10° N 16:24:35 83° W 16:28:54 10° S
Cosmos 1697 Rocket 2.7 16:19:45 10° NNW 16:25:19 58° ENE 16:30:51 10° SE
Cosmos 1782 3.1 16:22:18 10° SSE 16:26:05 42° E 16:26:58 36° ENE
USA 267 3.9 16:21:33 18° NE 16:26:11 46° NNW 16:32:19 10° W
Cosmos 1980 Rocket 2.8 16:21:56 10° NNW 16:27:08 35° NE 16:28:50 29° E
Cosmos 1937 Rocket 3.6 16:22:08 10° NNW 16:27:20 51° ENE 16:32:30 10° SE
Cosmos 1763 Rocket 3.3 16:22:28 10° SSW 16:27:30 72° ESE 16:31:14 18° NNE
Cosmos 841 Rocket 4.1 16:24:36 10° SSE 16:29:12 34° ESE 16:30:01 32° E
Meteor 2-14 Rocket 4.4 16:23:55 10° N 16:30:00 63° ENE 16:36:01 10° SSE
SL-16 R/B 4.0 16:27:39 10° N 16:29:47 14° NNE 16:29:47 14° NNE
Cosmos 1656 4.0 16:26:00 10° NNW 16:31:30 68° WSW 16:37:02 10° SSE
USA 305 4.0 16:28:04 10° W 16:31:57 34° NNW 16:33:22 27° NNE
Cosmos 2082 Rocket 2.9 16:31:26 10° SSE 16:36:22 31° ESE 16:36:39 31° E
Cosmos 1340 Rocket 3.8 16:33:15 10° NNW 16:37:10 48° W 16:41:06 10° S
Cosmos 1092 Rocket 4.0 16:31:53 10° N 16:38:17 87° W 16:44:38 10° S
Cosmos 1809 Rocket 4.3 16:33:18 10° N 16:39:27 87° E 16:45:32 10° S
USA 229 DEB 3.8 16:33:13 10° NW 16:40:34 82° NE 16:48:24 10° SE
USA 229 3.8 16:33:19 10° NW 16:40:40 81° NE 16:48:29 10° SE
COSMOS 2406 3.3 16:35:52 10° S 16:41:29 57° ESE 16:43:56 33° NE
Cosmos 990 Rocket 4.3 16:37:36 10° NNW 16:42:47 67° WSW 16:47:54 10° S
Cosmos 2278 4.3 16:37:37 10° NNW 16:42:48 34° NE 16:42:50 34° NE
SKYMED 2 3.4 16:40:36 20° NNE 16:43:37 84° ESE 16:47:57 10° SSW
Lacrosse 5 rocket 3.1 16:42:52 10° NW 16:45:17 18° N 16:45:17 18° N
Cosmos 1151 Rocket 4.3 16:41:56 10° SSE 16:43:58 25° SE 16:43:58 25° SE
Meteor 2-21 Rocket 4.3 16:40:05 10° N 16:46:11 63° ENE 16:52:12 10° SSE
Cosmos 1602 3.9 16:43:43 10° NNW 16:47:33 72° W 16:51:23 10° S
Feng Yun 1-1 Rocket 4.3 16:42:13 10° SSE 16:48:03 62° ENE 16:53:53 10° N
ATLAS 2AS CENTAUR R/B 4.5 16:42:23 10° WNW 16:48:15 23° NNW 16:52:28 15° NNE
USA 276 2.5 16:45:14 10° WNW 16:47:51 59° WNW 16:47:51 59° WNW
Cosmos 1933 3.6 16:44:22 10° SSW 16:48:24 68° W 16:51:18 18° N
ATLAS CENTAUR R/B 2.7 16:39:43 10° SW 16:49:25 88° SE 16:50:57 45° NE
Cosmos 1428 Rocket 4.5 16:44:44 10° N 16:50:53 81° W 16:57:01 10° S
Cosmos 2142 Rocket 4.4 16:46:23 10° S 16:52:24 60° E 16:58:29 10° NNE
Cosmos 372 Rocket 4.0 16:49:22 10° NNW 16:54:30 55° ENE 16:55:12 51° E
Meteor 1-26 Rocket 4.3 16:50:32 10° S 16:56:26 85° E 17:02:30 10° NNE
Cosmos 858 Rocket 4.4 16:51:35 10° NNW 16:56:55 82° ENE 17:01:49 12° SSE
NOSS 3-1 (A) 4.3 16:56:27 10° NW 17:04:00 74° SW 17:12:47 10° SSE
USA 306 4.2 17:00:16 10° WNW 17:04:00 30° N 17:04:00 30° N
Cosmos 1805 Rocket 4.5 17:01:38 10° NNW 17:05:49 48° W 17:09:59 10° SSW
Cosmos 1833 Rocket 2.8 17:03:43 10° SSW 17:09:19 72° WNW 17:11:51 34° NNE
Cosmos 2279 Rocket 3.8 17:04:26 10° S 17:10:39 78° E 17:16:36 11° N
Cosmos 2360 4.4 17:06:05 10° NNW 17:11:49 71° WSW 17:17:29 10° SSE
CZ-4B R/B 4.1 17:07:15 10° S 17:12:30 47° W 17:17:42 10° NNW
NOSS 2-2 (D) 4.2 17:09:22 10° NW 17:14:29 70° NE 17:15:23 61° E
Meteor 1-14 Rocket 4.2 17:09:20 10° N 17:15:08 87° E 17:21:03 10° S
NOSS 2-2 (E) 4.3 17:10:39 10° NW 17:15:59 84° NE 17:18:12 46° SE
ARGOS 3.8 17:11:29 10° S 17:16:47 55° W 17:22:06 10° NNW
Sich 1 4.0 17:12:55 10° NNW 17:17:01 46° W 17:21:07 10° SSW
H-2A R/B 3.8 17:14:01 10° SSW 17:18:39 31° W 17:23:12 10° NNW
USA 307 4.5 17:16:49 10° WNW 17:19:51 27° NNW 17:19:51 27° NNW
COSMOS 2455 2.7 17:19:45 10° SSW 17:25:45 77° ESE 17:25:53 77° ESE
Cosmos 1655 Rocket 4.3 17:20:01 10° N 17:24:56 50° NNE 17:24:56 50° NNE
Landsat 5 4.4 17:27:18 43° NW 17:27:42 45° WNW 17:31:37 10° SW
ATLAS CENTAUR R/B 4.2 17:27:32 10° NW 17:28:51 11° NNW 17:29:27 11° NNW
COSMO-SKYMED 1 4.2 17:29:13 19° NNW 17:31:32 32° WNW 17:35:23 10° SW
Cosmos 540 Rocket 4.1 17:31:19 10° SW 17:36:16 51° WNW 17:37:03 47° NNW
CZ-2C R/B 3.9 17:32:56 10° N 17:37:42 37° WNW 17:42:25 10° SW
Okean O Rocket 3.7 17:35:54 10° SSW 17:39:40 27° W 17:43:29 10° NW
ISS -0.4 17:44:45 10° WNW 17:44:55 11° WNW 17:44:55 11° WNW
CZ-4C R/B 2.8 17:42:29 10° NW 17:49:42 78° NE 17:49:48 78° ENE
Cosmos 2322 Rocket 4.4 17:56:33 10° NNW 17:57:36 15° N 17:57:36 15° N
USA 267 4.3 18:08:54 34° N 18:08:54 34° N 18:14:06 10° WNW
Cosmos 1980 Rocket 3.3 18:05:55 10° NW 18:10:40 41° W 18:10:40 41° W
SL-16 R/B 4.3 18:10:25 10° NNW 18:11:40 17° NNW 18:11:40 17° NNW
Cosmos 2082 Rocket 3.6 18:14:50 10° SW 18:18:33 35° W 18:18:33 35° W
